SCP
0 0 0 0 0 0 0 0 0 0 0 0 0 0 0 0 0 1 1 0 0 0 1 1 1 1 1 1 1 1 1 1 1 1 1 1 0 1
0 0 0 0 0 0 0 0 0 0 0 0 0 0 0 0 0 0 1 1 1 1 1 1 1 1 1 1 1 1 1 1 1 1 1 1 1 1
0 0 0 0 0 0 0 0 0 0 0 0 0 0 0 0 0 0 0 1 1 1 1 1 1 1 1 1 1 0 0 0 0 1 1 0 0 1
0 0 0 0 0 0 0 0 0 0 0 0 0 0 0 0 0 0 0 0 1 1 1 1 1 1 1 1 0 0 0 0 0 0 0 0 0 0
0 0 0 0 0 0 0 0 0 0 0 0 0 0 0 0 0 0 0 0 1 1 1 1 1 0 0 0 0 0 0 0 0 0 0 0 0 0
0 0 0 0 0 0 0 0 0 0 0 0 0 0 0 0 0 0 0 0 0 1 1 1 0 0 0 0 0 0 0 0 0 0 0 0 0 0
0 0 0 0 0 0 0 0 0 0 0 0 0 0 0 0 0 0 0 0 0 1 1 0 0 0 0 0 0 0 0 0 0 0 0 0 0 0
0 0 0 0 0 0 0 0 0 0 0 0 0 0 0 0 0 0 0 0 0 0 0 0 0 0 0 0 0 0 0 0 0 0 0 0 0 0
0 0 0 0 0 0 0 0 0 0 0 0 1 0 0 0 0 0 0 0 0 0 0 0 0 0 0 0 0 0 0 0 0 0 0 0 0 0
0 0 0 0 0 0 0 0 0 0 0 0 0 0 0 0 0 0 0 0 0 0 0 0 0 0 0 0 0 0 0 0 0 0 0 0 0 0
0 0 0 0 0 0 0 0 1 1 0 0 0 0 0 0 0 0 0 0 0 0 0 0 0 0 0 0 0 0 0 0 0 0 0 0 0 0
0 0 0 0 0 0 0 0 1 1 1 0 0 0 0 0 0 0 0 0 0 0 0 0 0 0 0 0 0 0 0 0 0 0 0 0 0 0
0 0 0 0 0 0 0 0 0 0 1 1 1 1 1 1 0 0 0 0 0 0 0 0 0 0 0 0 0 0 0 0 0 0 0 0 0 0
0 0 0 0 0 0 0 0 0 0 0 0 1 1 1 1 0 0 0 0 0 0 0 0 0 0 0 0 0 0 0 0 0 0 0 0 0 0
0 0 0 0 0 0 0 0 0 0 0 0 0 0 0 0 0 0 0 0 0 0 0 0 0 0 0 0 0 0 0 0 0 0 0 0 0 0
0 0 0 0 0 0 0 0 0 0 0 0 0 0 0 0 0 0 0 0 0 0 0 0 0 0 0 0 0 0 0 0 0 0 0 0 0 0
0 0 0 0 0 0 0 0 0 0 0 0 0 0 0 0 0 0 0 0 0 0 0 0 0 0 0 0 0 0 0 0 0 0 0 0 0 0
0 1 1 1 1 1 0 0 0 0 0 0 0 0 0 0 0 0 0 0 0 0 0 0 0 0 0 0 0 0 0 0 0 0 0 0 0 0
0 1 1 1 1 1 1 1 1 0 0 0 0 0 0 0 0 0 0 0 0 0 0 0 0 0 0 0 0 0 0 0 0 0 0 0 0 0
0 1 1 1 1 1 1 1 1 1 0 0 0 0 0 0 0 0 0 0 0 0 0 0 0 0 0 0 0 0 0 0 0 0 0 0 0 0
1 1 1 1 1 1 1 1 1 0 0 0 0 0 0 0 0 0 0 0 0 0 0 0 0 0 0 0 0 0 0 0 0 0 0 0 0 0
1 1 1 1 1 1 1 1 0 0 0 0 0 0 0 0 0 0 0 0 0 0 0 0 0 0 0 0 0 0 0 0 0 0 0 0 0 0
1 1 1 1 1 1 1 0 0 0 0 0 0 0 0 0 0 0 0 0 0 0 0 0 0 0 0 0 0 0 0 0 0 0 0 0 0 0
Wind_Speed
2 2 1 1 1 1 1 2 2 1 1 1 1 2 2 2 3 2 3 6 6 6 7 8 9 9 9 9 10 10 9 8 8 8 7 7 7 7
2 2 2 1 1 1 1 1 2 2 1 2 1 2 2 2 2 3 3 3 4 5 6 7 7 8 8 8 9 9 9 9 8 8 7 7 7 7
2 2 2 2 1 1 1 1 1 1 1 1 1 1 1 2 2 2 2 2 2 4 5 5 6 6 7 7 7 7 8 8 8 7 7 7 7 7
2 2 2 2 1 1 1 1 1 1 1 1 0 1 1 2 2 2 2 2 2 4 3 4 4 5 5 5 6 6 6 6 6 7 7 7 7 7
1 1 1 1 1 1 0 1 0 0 1 1 1 1 1 1 2 2 2 2 2 1 1 1 2 3 4 4 5 6 6 6 6 6 6 7 7 7
1 1 1 1 1 1 0 1 1 0 0 1 1 1 1 2 2 2 2 2 2 2 2 1 0 1 1 2 4 5 5 5 6 6 6 7 7 7
1 1 2 3 5 4 2 2 1 1 1 1 1 2 2 2 2 3 3 3 2 2 3 2 2 2 1 1 1 4 5 5 6 6 6 6 7 7
1 1 1 1 1 1 1 3 4 3 2 2 2 3 3 3 3 4 4 4 3 2 4 3 2 3 2 2 3 3 4 5 6 6 6 6 7 7
1 1 1 1 1 1 2 3 1 1 4 5 4 4 4 4 4 4 4 5 5 4 4 4 3 3 3 2 2 2 4 5 6 7 7 7 8 8
2 2 2 1 0 1 1 1 1 1 2 3 4 4 5 5 5 6 6 5 5 3 3 5 4 4 4 3 1 1 4 5 6 7 7 8 8 9
2 2 3 2 1 1 3 2 2 1 1 0 2 3 4 4 5 4 4 4 5 3 2 4 5 5 5 4 1 2 3 5 6 7 8 8 9 10
2 2 1 2 1 2 4 3 3 2 2 2 3 4 3 2 4 5 4 5 5 4 2 4 5 5 5 3 3 3 4 4 6 7 8 8 8 8
2 2 1 3 3 3 5 4 3 4 3 3 3 2 2 2 2 3 3 4 5 5 3 4 5 5 6 6 5 5 5 5 5 5 6 6 7 8
2 2 1 3 2 3 3 1 1 3 3 3 3 3 3 3 3 3 4 4 5 6 5 5 5 5 7 8 7 5 5 6 6 6 6 5 7 8
1 1 1 2 2 3 3 3 4 3 3 3 3 3 3 3 3 3 4 4 5 5 5 6 6 6 6 8 7 7 7 6 5 6 7 7 7 6
2 3 3 2 2 2 2 3 3 2 3 3 3 3 3 3 3 3 4 4 4 4 4 5 6 7 7 8 8 8 7 6 6 6 7 7 7 7
2 2 2 2 2 2 2 2 2 2 2 3 3 3 3 3 3 3 4 4 5 5 4 3 4 5 7 7 7 7 7 7 7 7 8 8 8 7
3 3 2 2 2 2 2 2 2 2 2 3 3 3 3 4 4 3 4 4 5 5 5 4 4 5 6 5 5 7 7 7 7 8 8 9 9 8
3 3 2 2 2 2 2 2 2 2 2 3 3 3 4 4 4 4 4 5 5 5 5 5 4 5 7 8 5 4 7 7 7 7 7 8 10 9
3 2 2 2 2 2 2 2 2 2 2 3 3 3 4 4 4 5 5 5 6 6 6 5 4 5 7 8 8 7 6 7 7 8 8 8 9 9
2 2 2 2 2 2 2 2 3 3 3 3 3 4 4 4 5 5 6 6 6 6 7 6 5 6 7 7 8 7 6 5 7 8 9 9 10 9
2 2 2 2 2 2 2 2 3 3 3 3 3 4 4 5 6 7 6 6 6 6 7 6 6 5 6 7 9 9 9 8 7 9 10 10 8 9
2 2 2 2 1 2 2 3 3 3 3 4 4 4 4 5 5 6 6 6 6 7 7 6 6 5 6 7 8 8 11 10 8 8 7 7 11 15
Wind_Direction
59 73 56 67 43 22 344 308 314 311 77 72 56 56 39 41 18 17 39 55 40 33 31 33 33 31 29 27 28 27 30 35 37 35 29 24 19 17
39 45 49 63 62 44 339 321 323 320 352 56 39 38 25 12 37 3 25 85 63 38 30 30 31 29 26 24 25 26 27 28 28 26 22 17 15 13
88 69 65 51 56 53 27 8 353 320 313 51 69 45 18 357 12 355 356 353 61 59 30 24 25 25 22 21 21 21 22 20 17 15 12 7 5 3
64 66 67 82 63 42 23 34 35 345 324 330 339 16 346 350 343 339 352 8 3 70 39 22 22 20 17 17 16 16 13 9 5 2 359 355 352 351
54 40 46 63 75 78 19 5 2 30 312 285 346 4 310 337 326 332 341 336 330 79 111 41 21 13 13 13 12 12 10 6 1 354 348 346 344 340
68 35 19 8 349 5 344 341 330 303 280 285 307 307 306 320 307 315 320 328 312 331 347 313 233 241 353 4 8 7 2 360 357 353 348 342 338 335
135 84 48 35 23 6 350 339 322 294 283 291 301 300 304 310 314 310 308 307 304 318 309 300 296 308 308 278 334 353 350 352 351 348 344 341 336 332
193 177 134 152 129 133 6 356 348 323 314 299 295 300 312 311 307 298 305 307 309 344 311 308 304 303 309 328 23 1 341 341 342 339 335 333 329 324
236 229 194 161 228 198 169 188 202 309 305 307 307 312 314 319 306 298 303 305 306 319 307 298 300 299 306 350 38 336 332 334 333 330 326 325 321 316
236 243 237 238 224 284 262 258 286 290 291 279 301 314 322 320 307 302 301 291 289 288 285 291 305 303 303 298 154 297 308 312 316 319 318 316 314 308
231 248 255 247 114 254 258 262 268 246 141 229 323 322 343 332 311 293 295 290 293 296 295 294 304 307 294 285 242 211 262 276 292 301 305 307 305 298
221 222 230 260 164 237 255 263 271 280 280 239 228 230 251 241 258 277 292 293 298 300 331 303 302 309 298 292 305 300 284 267 265 272 283 292 298 294
234 233 191 170 206 238 268 279 302 305 290 288 290 289 281 283 271 272 283 289 293 294 319 305 297 298 292 298 299 298 302 303 294 285 267 265 275 284
250 250 129 135 189 233 250 265 287 279 275 279 280 285 291 295 295 294 289 281 280 289 299 294 289 293 292 293 296 301 302 301 299 300 303 286 265 259
257 60 78 156 195 212 210 228 240 249 264 275 282 290 296 298 299 296 287 282 281 280 285 283 281 286 284 287 292 296 298 298 295 300 303 302 301 296
198 153 165 195 217 232 217 216 231 255 275 279 287 291 292 291 288 287 284 283 278 276 273 279 281 282 281 285 287 290 294 293 297 299 300 298 297 295
182 197 207 209 223 226 228 236 242 240 247 263 275 283 286 285 285 287 287 287 286 290 289 285 282 281 277 281 285 288 294 295 298 303 301 296 295 296
199 216 222 236 251 256 253 247 247 260 270 275 279 284 287 288 290 291 288 286 287 290 295 301 301 296 289 276 264 286 293 297 300 299 296 295 295 296
216 228 231 240 251 253 258 265 271 272 274 273 278 285 288 290 291 292 289 289 290 295 300 302 300 298 298 299 293 267 295 298 299 296 295 294 294 298
226 231 233 238 249 257 262 267 273 272 266 270 278 282 285 287 287 287 288 292 293 295 295 293 293 293 292 296 298 297 277 289 297 297 298 296 293 292
213 226 232 239 249 257 266 270 272 275 276 272 272 276 281 281 282 284 286 283 281 286 290 292 298 282 283 286 285 290 296 277 278 288 298 299 299 297
214 216 221 234 244 251 259 267 272 275 279 277 279 280 283 283 285 286 288 288 287 290 294 297 299 292 287 285 290 296 302 303 286 265 263 271 290 295
212 218 220 221 235 252 263 266 272 280 284 287 289 292 293 292 292 290 290 290 292 295 298 300 301 297 293 291 293 296 301 304 304 301 291 269 260 267